Location: Kernascl�den
(48.0062°N, 3.3198°W)
Time: 08:40:48
(UTC+00:00)

Cosmos 1455 - Visible Passes

Search period start: 11 May 2021 00:00
Search period end: 21 May 2021 00:00
Orbit: 498 x 521 km, 82.5° (Epoch: 10 May)

Date Brightness Start Highest point End Pass type
(mag) Time Alt. Az. Time Alt. Az. Time Alt. Az.
11 May 4.1 03:39:48 10° N 03:43:21 34° ENE 03:46:51 10° SE visible
12 May 4.5 03:22:59 10° NNE 03:26:18 27° ENE 03:29:38 10° SE visible
13 May 4.8 03:06:12 10° NNE 03:09:16 22° ENE 03:12:21 10° SE visible
14 May 5.1 02:49:28 10° NNE 02:52:13 18° ENE 02:54:57 10° ESE visible
15 May 5.2 02:32:50 10° NNE 02:35:09 15° ENE 02:37:27 10° ESE visible
16 May 5.3 02:16:23 10° NE 02:18:03 12° ENE 02:19:44 10° E visible
16 May 2.2 03:50:16 10° NNW 03:54:05 63° W 03:57:53 10° S visible
17 May 5.6 02:00:47 10° ENE 02:00:57 10° ENE 02:01:07 10° ENE visible
17 May 2.2 03:33:15 10° NNW 03:37:07 81° W 03:40:58 10° S visible
18 May 2.3 03:16:16 10° N 03:20:09 79° E 03:24:00 10° SSE visible
19 May 2.7 02:59:19 10° N 03:03:09 62° ENE 03:06:59 10° SSE visible
20 May 3.1 02:42:23 10° N 02:46:09 48° ENE 02:49:53 10° SSE visible
